Zurück zum Katalog

STARLINK-31488

AktivKommunikationVLEO
NORAD 59009·PAYLOAD·🇺🇸 United States

Gestartet Feb 23, 2024 von Vandenberg Space Force Base

Loading…

Nächste Überflüge (nächste 24 Stunden)

TLE

AktuellSource: CelesTrak SupGP

Epoche: Sep 14, 2026, 20:46 UTC

1 59009C 24036M   26257.86576389  .00032513  00000+0  96084-3 0  2572
2 59009  53.1579 277.8930 0001308  80.1767  96.7014 15.34366441    17

Verfolge STARLINK-31488 in Echtzeit mit AllMySat

Download on the App Store